Location: Casilda
(33.0440°S, 61.1680°W)
Time: 20:29:49
(UTC-03:00)

ISS - Pass Details

Date: 04 June 2023
Orbit: 411 x 419 km, 51.6° (Epoch: 04 June)

Event Time Altitude Azimuth Distance (km) Brightness Sun altitude
Exits shadow 06:49:50 - 189° (S) 1,624 -1.0 -14.6°
Reaches altitude 10° 06:50:17 10° 183° (S) 1,520 -1.1 -14.5°
Maximum altitude 06:52:10 14° 150° (SSE) 1,295 -1.1 -14.2°
Drops below altitude 10° 06:54:02 10° 116° (ESE) 1,511 -0.3 -13.8°
Sets 06:56:55 0° 89° (E) 2,366 1.6 -13.2°
